NOAA 16 DEB, 41073

Orbit data source: Space-Track

NOAA 16 DEB, 41073 is space debris in SSO originally from a launch on Thu, 21 Sep 2000 UTC launched from the Air Force Western Test Range (AFWTR). Debris objects in space refer to the collection of defunct objects orbiting the Earth. Examples of debris include non-operational satellites, rocket bodies, and fragments generated from explosions, collisions, or faulty payload assembly.

Loading next visibility...
Identifier
41073, 2000-055AG
Orbit
SSO
Country
Flag of USUS
Related business
Manufacturer
Unknown
Mission
Spacecraft
Bus & Motor
Unknown
Mass
Unknown
Launch date (UTC)
2000-09-21 (26 years ago)
Launch vehicle
Unknown
Launch site
Air Force Western Test Range (AFWTR)
Object type
Payload
Rocket body
Debris
Shape & HBR
Unknown shape, 0.1 m
Radar Cross Section
Medium (>0.1 m² and <1 m²)

Expand to show TLE details & history
Last TLE update: 12 hours ago

TLE from 12 hours ago
0 NOAA 16 DEB
1 41073U 00055AG  26237.27888819  .00002131  00000-0  79253-3 0  9992
2 41073  98.7918 351.5118 0016599 337.0702  22.9738 14.33083865557273
Epoch: 2026-08-25T06:41Z
TLE epoch observation values (Epoch: 2026-08-25T06:41:35.939Z)
Latitude
-0.0001°
Longitude
-82.43645°
Altitude
773.43 km
Speed
7.473 km/s
True Right ascension
23h 26m 02s
True Declination
0° 00' 00"
Sunlit
Object was in full shadow at epoch
Visualization orbit readout
Latitude
Unknown
Longitude
Unknown
Altitude
Unknown
Speed
Unknown
Apparent Right ascension
Unknown
Apparent Declination
Unknown
Sunlit
N/A
Visualization observer readout
Local Sidereal Time
09:52:11
Azimuth
Unknown
Elevation
Unknown
Doppler factor
Unknown
Orbital elements
Apogee altitude
790.466 km
Perigee altitude
766.707 km
Semi-major axis
7,156.723 km
Eccentricity
0.00166
Inclination
98.7918°
RAAN
351.5118°
Arg. of periapsis
337.0702°
True anomaly
23.04818°
Mean anomaly
22.9738°
Eccentric anomaly
23.01098°
Mean motion
3.58486 °/min
Orbital period
100.42 mins
BSTAR
0.00079253
Loading maneuver chart data...
Computing Atmospheric mass density...
Loading historical data...
Loading historical data...
Loading historical data...
Loading historical data...
Loading historical data...
Loading historical data...
Loading historical data...

Documentation

Showing up to 5 results
|